[[{"header":{"parameterUnit":"m.s-1","parameterCategory":1,"la1":30.2991,"la2":30.254,"lo1":-89.0895,"lo2":-89.0444,"dy":0.0017,"dx":0.0017,"nx":28,"ny":28,"refTime":"2024-12-16T03:00:00:Z","depth":0,"parameterNumber":2,"parameterNumberName":"U-component_of_WINDS"},"data":[0,0,0,0,0,0,0,0,0,0,0,0,0,0,0,0,0,0,0,0,0,0,0,0,0,0,0,0,0,0,0,0,0,0,0,0,0,0,0,0,0,0,0,0,0,0,0,0,0,0,0,0,0,0,0,0,0,0,-3.5625,-3.5625,0,-3.5636,-3.5637,-3.5637,-3.557,-3.5568,-3.5566,-3.5564,-3.5578,-3.5581,-3.5583,0,0,0,0,0,0,0,0,0,0,0,0,0,-3.5548,-3.5549,-3.5625,-3.5625,-3.5625,-3.5636,-3.5637,-3.5637,-3.557,-3.5568,-3.5565,-3.5563,-3.5578,-3.558,-3.5583,0,0,0,0,0,0,0,0,0,0,0,0,0,-3.5573,-3.555,-3.5625,-3.5593,-3.559,-3.5636,-3.5637,-3.5637,-3.557,-3.5568,-3.5565,-3.5562,-3.5577,-3.558,-3.5583,-3.5661,0,0,-3.5593,-3.5595,0,0,0,0,0,0,0,0,-3.5571,-3.5575,-3.5597,-3.5595,-3.5592,-3.5599,-3.5615,-3.5645,-3.5571,-3.5578,-3.5564,-3.5561,-3.5588,-3.559,-3.5598,-3.5662,-3.5662,-3.5594,-3.5596,-3.5597,-3.5598,0,0,0,0,0,0,0,-3.557,-3.5575,-3.5629,-3.5598,-3.5595,-3.5579,-3.558,-3.562,-3.5599,-3.5577,-3.5572,-3.5575,-3.5586,-3.5595,-3.5598,-3.5663,-3.5593,-3.5596,-3.5598,-3.56,-3.5793,-3.5796,0,0,0,0,0,0,-3.5572,-3.5574,-3.5629,-3.563,-3.5574,-3.5583,-3.5583,-3.5599,-3.5598,-3.5595,-3.5577,-3.5571,-3.5591,-3.5595,-3.5599,-3.5691,-3.5597,-3.56,-3.5602,-3.579,-3.5794,-3.5797,0,0,0,0,0,0,-3.557,-3.5577,-3.5628,-3.56,-3.5606,-3.5587,-3.5606,-3.5601,-3.5611,-3.5598,-3.5594,-3.5591,-3.5589,-3.5594,-3.5646,-3.5691,-3.5601,-3.5604,-3.5786,-3.5791,-3.5796,-3.5876,0,0,0,0,0,0,-3.5568,-3.5577,-3.5606,-3.5601,-3.5607,-3.5675,-3.5609,-3.5604,-3.5616,-3.5609,-3.561,-3.5607,-3.5587,-3.5642,-3.565,-3.5694,-3.5607,-3.5782,-3.5789,-3.5794,-3.587,-3.5883,-3.5895,0,0,0,0,0,-3.5566,-3.5628,-3.5607,-3.5614,-3.5642,-3.5678,-3.5681,-3.5656,-3.562,-3.5649,-3.5642,-3.5607,-3.5685,-3.5648,-3.5656,-3.5702,-3.5779,-3.5787,-3.5794,-3.5864,-3.5881,-3.5895,0,0,0,0,0,0,-3.5638,-3.5626,-3.5604,-3.5666,-3.5674,-3.5666,-3.5702,-3.5674,-3.5693,-3.5685,-3.5654,-3.5655,-3.5714,-3.5713,-3.5672,-3.5778,-3.5726,-3.5735,-3.5777,-3.5792,-3.5805,-3.5804,-3.561,0,0,0,0,0,-3.5661,-3.569,-3.5679,-3.5735,-3.574,-3.5721,-3.5735,-3.5715,-3.5722,-3.5725,-3.5721,-3.573,-3.5756,-3.5774,-3.5797,-3.5869,-3.587,-3.5905,-3.5918,-3.5928,-3.5937,-3.5977,-3.5993,-3.5821,-3.5821,-3.5821,0,0,-3.5709,-3.5706,-3.5726,-3.5749,-3.5752,-3.5785,-3.5724,-3.5759,-3.5783,-3.5731,-3.578,-3.5778,-3.5786,-3.5849,-3.5876,-3.585,-3.5984,-3.5937,-3.5946,-3.5948,-3.5986,-3.6002,-3.6017,-3.5826,-3.5825,-3.5824,0,0,-3.5812,-3.5813,-3.586,-3.5865,-3.5872,-3.5859,-3.5871,-3.5868,-3.5865,-3.5914,-3.5876,-3.5904,-3.595,-3.5958,-3.5968,-3.6077,-3.6047,-3.6086,-3.6152,-3.6192,-3.6205,-3.6217,-3.6258,-3.6273,-3.6094,-3.6094,-3.6094,0,-3.5871,-3.5917,-3.5889,-3.5928,-3.594,-3.5894,-3.5943,-3.5949,-3.5963,-3.5973,-3.5943,-3.6001,-3.6003,-3.6068,-3.6095,-3.6104,-3.6118,-3.6085,-3.6205,-3.6217,-3.6228,-3.6266,-3.6281,-3.6099,-3.6099,-3.6098,-3.6098,0,-3.599,-3.6023,-3.6061,-3.6075,-3.6092,-3.6135,-3.6115,-3.6136,-3.6115,-3.6106,-3.6158,-3.6159,-3.6183,-3.6197,-3.6177,-3.626,-3.6244,-3.621,-3.6157,-3.6249,-3.6285,-3.6299,-3.6106,-3.6104,-3.6103,-3.6102,0,0,-3.6138,-3.6138,-3.6152,-3.616,-3.6164,-3.6189,-3.6232,-3.6255,-3.6274,-3.6286,-3.6322,-3.6363,-3.6332,-3.6343,-3.6324,-3.6359,-3.6448,-3.6321,-3.6321,-3.6346,-3.6542,-3.6568,-3.6586,-3.6428,-3.6431,-3.6433,-3.6542,0,-3.6241,-3.6313,-3.629,-3.6364,-3.6395,-3.6352,-3.639,-3.6398,-3.6391,-3.6418,-3.641,-3.644,-3.6397,-3.6404,-3.6436,-3.643,-3.6487,-3.6422,-3.6463,-3.6465,-3.6463,-3.6604,-3.6631,-3.6734,-3.6556,-3.6558,-3.656,0,-3.6369,-3.6387,-3.6464,-3.6465,-3.6477,-3.6511,-3.6532,-3.6557,-3.6566,-3.6559,-3.6573,-3.6547,-3.6591,-3.6538,-3.6599,-3.6555,-3.6571,-3.6571,-3.6574,-3.6578,-3.6518,-3.6613,-3.6766,-3.6782,-3.6581,-3.658,-3.6578,0,-3.6472,-3.6514,-3.6566,-3.6573,-3.6576,-3.6601,-3.6604,-3.6609,-3.6625,-3.6644,-3.6654,-3.6678,-3.6691,-3.671,-3.6693,-3.6655,-3.6757,-3.6702,-3.6754,-3.6755,-3.6778,-3.6777,-3.6938,-3.6787,-3.6786,-3.6786,-3.6786,0,-3.6589,-3.6638,-3.6612,-3.6645,-3.6699,-3.6673,-3.6728,-3.6726,-3.6732,-3.6764,-3.6729,-3.676,-3.6734,-3.6764,-3.675,-3.6804,-3.681,-3.6807,-3.6803,-3.6811,-3.6811,-3.6821,-3.6814,-3.679,-3.6789,-3.6789,-3.6788,0,-3.6712,-3.6697,-3.6751,-3.6749,-3.675,-3.6791,-3.679,-3.6821,-3.6812,-3.6853,-3.6862,-3.6849,-3.6882,-3.6866,-3.69,-3.6891,-3.6962,-3.6947,-3.6959,-3.6955,-3.7009,-3.7005,-3.7182,-3.7205,-3.7038,-3.704,-3.7041,0,-3.6788,-3.6825,-3.6828,-3.6847,-3.6852,-3.6883,-3.6899,-3.6876,-3.6895,-3.6909,-3.6938,-3.6968,-3.6991,-3.7046,-3.7041,-3.7068,-3.7055,-3.7115,-3.7059,-3.7066,-3.7057,-3.7056,-3.706,-3.7127,-3.7129,-3.713,-3.7131,0,-3.6926,-3.6917,-3.6942,-3.6965,-3.6986,-3.7003,-3.7017,-3.7035,-3.7012,-3.7035,-3.7069,-3.7087,-3.7122,-3.7153,-3.7177,-3.7181,-3.7154,-3.7149,-3.7163,-3.7172,-3.7177,-3.7177,-3.6991,-3.7145,-3.7144,-3.7143,-3.7142,-3.7142,-3.7029,-3.706,-3.7068,-3.7098,-3.7106,-3.7121,-3.715,-3.7146,-3.7173,-3.72,-3.7185,-3.7224,-3.7235,-3.7264,-3.7272,-3.7303,-3.728,-3.7299,-3.7304,-3.731,-3.7318,-3.7172,-3.7308,-3.7307,-3.7307,-3.7306,-3.7306,0,-3.7165,-3.7169,-3.7196,-3.7218,-3.7242,-3.7213,-3.7228,-3.725,-3.7285,-3.7297,-3.732,-3.736,-3.7391,-3.7388,-3.7417,-3.7443,-3.7431,-3.7451,-3.745,-3.7452,-3.7336,-3.7322,-3.7461,-3.7461,-3.7461,-3.7461,-3.746,-3.746,-3.7239,-3.7292,-3.7285,-3.7343,-3.7345,-3.7384,-3.7395,-3.7409,-3.7418,-3.7464,-3.7489,-3.7488,-3.7494,-3.7523,-3.7551,-3.755,-3.7562,-3.7588,-3.7582,-3.7475,-3.7459,-3.7445,-3.7431,-3.759,-3.759,-3.7694,-3.7695,-3.7696]},{"header":{"parameterUnit":"m.s-1","parameterCategory":1,"la1":30.2991,"la2":30.254,"lo1":-89.0895,"lo2":-89.0444,"dy":0.0017,"dx":0.0017,"nx":28,"ny":28,"refTime":"2024-12-16T03:00:00:Z","depth":0,"parameterNumber":3,"parameterNumberName":"V-component_of_WINDS"},"data":[0,0,0,0,0,0,0,0,0,0,0,0,0,0,0,0,0,0,0,0,0,0,0,0,0,0,0,0,0,0,0,0,0,0,0,0,0,0,0,0,0,0,0,0,0,0,0,0,0,0,0,0,0,0,0,0,0,0,0.0624,0.0625,0,0.0673,0.0673,0.0674,0.0738,0.0739,0.074,0.0741,0.0789,0.0789,0.079,0,0,0,0,0,0,0,0,0,0,0,0,0,0.0586,0.0586,0.0624,0.0625,0.0625,0.0673,0.0673,0.0674,0.0738,0.0739,0.074,0.0741,0.0789,0.0789,0.079,0,0,0,0,0,0,0,0,0,0,0,0,0,0.0615,0.0587,0.0624,0.0663,0.0667,0.0672,0.0673,0.0674,0.0737,0.0739,0.074,0.0742,0.0789,0.0789,0.079,0.0761,0,0,0.0791,0.0791,0,0,0,0,0,0,0,0,0.0614,0.0617,0.0656,0.066,0.0664,0.0701,0.0678,0.0703,0.0737,0.071,0.0741,0.0743,0.0758,0.0761,0.0767,0.0763,0.0765,0.0791,0.0791,0.0791,0.0792,0,0,0,0,0,0,0,0.0612,0.0615,0.0643,0.0657,0.0662,0.0678,0.0684,0.0683,0.0725,0.0713,0.0718,0.0723,0.0761,0.0766,0.0768,0.0766,0.0791,0.0791,0.0792,0.0792,0.0743,0.0742,0,0,0,0,0,0,0.0604,0.0613,0.0642,0.0645,0.0642,0.0677,0.0684,0.0687,0.0725,0.0732,0.0721,0.0725,0.0765,0.0768,0.077,0.0741,0.0791,0.0792,0.0792,0.0745,0.0743,0.0741,0,0,0,0,0,0,0.0603,0.0606,0.064,0.063,0.0636,0.0676,0.068,0.0688,0.0693,0.0731,0.0739,0.0719,0.0766,0.077,0.0763,0.0743,0.0792,0.0792,0.0747,0.0744,0.0742,0.068,0,0,0,0,0,0,0.0601,0.0605,0.0594,0.0629,0.0636,0.0632,0.0679,0.0687,0.0694,0.07,0.0731,0.0738,0.0768,0.0762,0.0764,0.0745,0.0793,0.0749,0.0746,0.0743,0.0684,0.0676,0.0669,0,0,0,0,0,0.06,0.0574,0.0593,0.0596,0.0623,0.063,0.0634,0.0669,0.0692,0.0682,0.0707,0.0737,0.0745,0.0761,0.0763,0.0744,0.075,0.0747,0.0743,0.0688,0.0678,0.0669,0,0,0,0,0,0,0.0534,0.0579,0.0601,0.0586,0.0604,0.0641,0.0629,0.0657,0.0668,0.0673,0.0716,0.0722,0.0711,0.0727,0.0744,0.072,0.0752,0.0749,0.0709,0.07,0.0693,0.0689,0.0793,0,0,0,0,0,0.0518,0.052,0.0559,0.0542,0.055,0.0588,0.0592,0.0618,0.0638,0.0646,0.067,0.0688,0.0695,0.0698,0.0707,0.0687,0.0696,0.0675,0.0667,0.0661,0.0658,0.0651,0.0642,0.073,0.073,0.073,0,0,0.0485,0.051,0.0508,0.053,0.0547,0.0548,0.0594,0.0593,0.0595,0.0645,0.0642,0.066,0.0683,0.067,0.0666,0.0683,0.0636,0.0657,0.0651,0.0652,0.0646,0.0638,0.063,0.0727,0.0728,0.0728,0,0,0.0425,0.0443,0.0432,0.0449,0.0474,0.05,0.0497,0.0531,0.0545,0.0542,0.0581,0.0583,0.0594,0.061,0.0619,0.0567,0.0596,0.0568,0.0529,0.0521,0.0514,0.0509,0.0491,0.0485,0.0565,0.0565,0.0565,0,0.038,0.0384,0.0422,0.042,0.0429,0.0476,0.0466,0.048,0.0506,0.0511,0.0531,0.0547,0.0565,0.0558,0.0546,0.0551,0.055,0.0565,0.0512,0.0507,0.0502,0.0486,0.0479,0.0561,0.0562,0.0562,0.0563,0,0.0328,0.033,0.0318,0.0344,0.0352,0.0345,0.0383,0.0386,0.0412,0.0435,0.0433,0.0457,0.0472,0.0472,0.0496,0.0469,0.0479,0.0504,0.0539,0.049,0.0476,0.047,0.0557,0.0558,0.0559,0.056,0,0,0.0227,0.0276,0.0271,0.0284,0.0317,0.032,0.0316,0.0332,0.0334,0.0351,0.035,0.0358,0.0383,0.0394,0.042,0.0413,0.0373,0.044,0.0441,0.0428,0.0346,0.0327,0.0319,0.0392,0.0391,0.039,0.0345,0,0.0174,0.017,0.0206,0.0193,0.0197,0.0242,0.0239,0.0259,0.0282,0.0288,0.0313,0.0319,0.035,0.0358,0.0353,0.0379,0.0357,0.0382,0.0392,0.0392,0.0385,0.0312,0.0292,0.0247,0.0339,0.0338,0.0338,0,0.0111,0.0127,0.0114,0.015,0.0152,0.0149,0.0167,0.0173,0.0197,0.0214,0.0226,0.0257,0.0257,0.0289,0.0289,0.0306,0.0312,0.0325,0.0324,0.0327,0.0362,0.0314,0.0234,0.0227,0.0329,0.033,0.033,0,0.0041,0.0058,0.0053,0.0063,0.0104,0.0101,0.0117,0.0143,0.0151,0.0167,0.0173,0.0188,0.0196,0.0208,0.0243,0.0262,0.0239,0.0274,0.0254,0.0253,0.0247,0.0247,0.0168,0.0249,0.025,0.025,0.025,0,-0.0022,-0.0031,0.0023,0.002,0.0011,0.0053,0.0043,0.0065,0.0088,0.009,0.013,0.0132,0.0177,0.0184,0.0211,0.0208,0.0211,0.0225,0.0233,0.0222,0.022,0.0227,0.0231,0.0248,0.0248,0.0249,0.0249,0,-0.0103,-0.0067,-0.0069,-0.0029,-0.0019,-0.0027,0.0007,0.0006,0.0032,0.0035,0.0038,0.0078,0.0088,0.0124,0.0142,0.0161,0.015,0.0163,0.0142,0.0147,0.0126,0.0128,0.0048,0.0041,0.0126,0.0125,0.0124,0,-0.0144,-0.015,-0.0111,-0.0105,-0.009,-0.0083,-0.0074,-0.0033,-0.0025,0.0003,-0.0001,0.0013,0.0026,0.0041,0.0072,0.0087,0.0102,0.0073,0.0104,0.0094,0.0103,0.0103,0.0103,0.0066,0.0065,0.0064,0.0063,0,-0.0222,-0.0204,-0.0192,-0.0174,-0.0164,-0.0149,-0.013,-0.0129,-0.0082,-0.0076,-0.0064,-0.0054,-0.0033,-0.002,0.0001,0.0018,0.0049,0.0053,0.005,0.0039,0.0028,0.0035,0.0125,0.0055,0.0056,0.0056,0.0057,0.0057,-0.0284,-0.0286,-0.0257,-0.0246,-0.0227,-0.021,-0.0208,-0.0182,-0.0171,-0.0151,-0.0127,-0.0118,-0.0092,-0.0061,-0.0045,-0.0037,-0.0021,-0.0026,-0.0027,-0.0029,-0.0034,0.0026,-0.0033,-0.0033,-0.0033,-0.0033,-0.0032,0,-0.0358,-0.0337,-0.0326,-0.0301,-0.0292,-0.0263,-0.024,-0.0234,-0.0226,-0.0204,-0.0191,-0.0177,-0.0163,-0.013,-0.0113,-0.0113,-0.0098,-0.011,-0.0109,-0.0105,-0.005,-0.0048,-0.0121,-0.0121,-0.0121,-0.0121,-0.0121,-0.0121,-0.0395,-0.0397,-0.0375,-0.0366,-0.0345,-0.0335,-0.0324,-0.0308,-0.029,-0.0276,-0.0263,-0.0242,-0.0215,-0.0195,-0.0181,-0.0171,-0.0166,-0.0182,-0.0168,-0.0117,-0.0109,-0.0101,-0.0099,-0.0182,-0.0182,-0.0223,-0.0224,-0.0224]}]]